Date String (YYYY-MM-DD hh:mm:ss) UTC,Instrument flags,absolute air pressure of the measurement (hPa),sample flow rate (lpm),inlet stack bypass flow (lpm),air temperature of the measurement (°C),ambient temperature measured by the external sensor (°C),aerosol sample conditioner tube jacket temperature (°C),OPC LED temperature (°C),internal box temperature (°C),relative humidity of the measurement (%),span deviation,mass concentration of particles derived from Lorenz-Mie calculation of OPC scattering (μg/m³),mass concentration of particles derived from Lorenz-Mie calculation of OPC scattering (μg/m³),mass concentration of particles derived from Lorenz-Mie calculation of OPC scattering (μg/m³)
DateTimeUTC,F1_M11,P_M11,Q1_M11,Q2_M11,T1_M11,T2_M11,T3_M11,T4_M11,T5_M11,U1_M11,ZSPAN_M11,X0_M11,X2_M11,X1_M11
2023-11-30 14:00:00,SystemResetWarning,0823.3,5.01,000.00,019.4,018.5,000.0,027.8,020.5,11.1,0000.0,0006.72,0004.10,0003.78
2023-11-30 14:01:00,SystemResetWarning,0823.4,5.01,000.00,019.4,018.5,000.0,027.8,020.5,11.1,0000.0,0006.70,0004.09,0003.78
2023-11-30 14:02:00,SystemResetWarning,0823.4,5.00,000.00,019.4,018.5,000.0,027.8,020.5,11.1,0000.0,0006.75,0004.10,0003.78
2023-11-30 14:03:00,SystemResetWarning,0823.4,5.00,000.00,019.4,018.5,000.0,027.8,020.5,11.1,0000.0,0006.68,0004.11,0003.78
2023-11-30 14:04:00,SystemResetWarning,0823.4,5.00,000.00,019.4,018.5,000.0,027.8,020.5,11.0,0000.0,0006.73,0004.12,0003.79
2023-11-30 14:05:00,SystemResetWarning,0823.4,5.00,000.00,019.4,018.5,000.0,027.8,020.5,11.0,0000.0,0006.69,0004.11,0003.78
2023-11-30 14:06:00,SystemResetWarning,0823.5,5.00,000.00,019.4,018.5,000.0,027.8,020.5,11.0,0000.0,0006.59,0004.10,0003.78
2023-11-30 14:07:00,SystemResetWarning,0823.4,5.00,000.00,019.4,018.5,000.0,027.8,020.5,11.1,0000.0,0006.73,0004.12,0003.77
2023-11-30 14:08:00,SystemResetWarning,0823.4,5.00,000.00,019.4,018.5,000.0,027.8,020.5,11.1,0000.0,0007.13,0004.17,0003.78
2023-11-30 14:09:00,SystemResetWarning,0823.4,5.00,000.00,019.4,018.5,000.0,027.8,020.5,11.0,0000.0,0007.12,0004.20,0003.78
2023-11-30 14:10:00,SystemResetWarning,0823.4,5.00,000.00,019.3,018.5,000.0,027.8,020.5,11.0,0000.0,0007.04,0004.18,0003.78
2023-11-30 14:11:00,SystemResetWarning,0823.4,5.00,000.00,019.3,018.5,000.0,027.8,020.5,11.0,0000.0,0007.08,0004.17,0003.78
2023-11-30 14:12:00,SystemResetWarning,0823.5,5.01,000.00,019.3,018.5,000.0,027.7,020.5,11.0,0000.0,0007.03,0004.17,0003.79
2023-11-30 14:13:00,SystemResetWarning,0823.5,5.00,000.00,019.3,018.5,000.0,027.7,020.5,11.0,0000.0,0006.91,0004.16,0003.79
2023-11-30 14:14:00,SystemResetWarning,0823.5,5.01,000.00,019.3,018.5,000.0,027.7,020.5,11.0,0000.0,0007.27,0004.16,0003.78
2023-11-30 14:15:00,SystemResetWarning,0823.5,5.00,000.00,019.3,018.5,000.0,027.7,020.5,11.0,0000.0,0007.30,0004.15,0003.77
2023-11-30 14:16:00,SystemResetWarning,0823.6,5.01,000.00,019.3,018.5,000.0,027.7,020.5,11.0,0000.0,0007.34,0004.16,0003.78
2023-11-30 14:17:00,SystemResetWarning,0823.6,5.01,000.00,019.3,018.5,000.0,027.7,020.5,11.0,0000.0,0007.36,0004.16,0003.79
2023-11-30 14:18:00,SystemResetWarning,0823.6,5.00,000.00,019.3,018.5,000.0,027.7,020.5,11.0,0000.0,0007.40,0004.16,0003.79
2023-11-30 14:19:00,SystemResetWarning,0823.7,5.00,000.00,019.3,018.5,000.0,027.7,020.5,11.2,0000.0,0007.18,0004.14,0003.80
2023-11-30 14:20:00,SystemResetWarning,0823.7,4.98,000.00,019.3,018.5,000.0,027.7,020.5,11.4,0000.0,0007.21,0004.13,0003.80
2023-11-30 14:21:00,SystemResetWarning,0823.7,4.99,000.00,019.3,018.5,000.0,027.7,020.5,11.4,0000.0,0007.39,0004.14,0003.82
2023-11-30 14:22:00,SystemResetWarning,0823.7,5.01,000.00,019.4,018.6,000.0,027.7,020.5,11.3,0000.0,0007.45,0004.15,0003.82
2023-11-30 14:23:00,SystemResetWarning,0823.6,5.00,000.00,019.3,018.5,000.0,027.7,020.5,11.3,0000.0,0007.49,0004.16,0003.82
2023-11-30 14:24:00,SystemResetWarning,0823.7,5.01,000.00,019.3,018.5,000.0,027.7,020.5,11.3,0000.0,0007.72,0004.16,0003.82
2023-11-30 14:25:00,SystemResetWarning,0823.7,5.00,000.00,019.3,018.5,000.0,027.7,020.5,11.3,0000.0,0007.59,0004.16,0003.82
2023-11-30 14:26:00,SystemResetWarning,0823.7,5.00,000.00,019.4,018.5,000.0,027.7,020.5,11.4,0000.0,0007.54,0004.17,0003.81
2023-11-30 14:27:00,SystemResetWarning,0823.7,5.00,000.00,019.4,018.5,000.0,027.7,020.5,11.4,0000.0,0007.52,0004.18,0003.82
2023-11-30 14:28:00,SystemResetWarning,0823.7,4.99,000.00,019.4,018.6,000.0,027.7,020.5,11.4,0000.0,0007.59,0004.21,0003.82
2023-11-30 14:29:00,SystemResetWarning,0823.7,5.00,000.00,019.4,018.6,000.0,027.7,020.5,11.3,0000.0,0007.89,0004.20,0003.82
2023-11-30 14:30:00,SystemResetWarning,0823.7,5.00,000.00,019.4,018.6,000.0,027.7,020.5,11.6,0000.0,0007.88,0004.19,0003.82
2023-11-30 14:31:00,SystemResetWarning,0823.7,5.00,000.00,019.4,018.6,000.0,027.7,020.6,11.8,0000.0,0007.88,0004.17,0003.82
2023-11-30 14:32:00,SystemResetWarning,0823.7,5.00,000.00,019.4,018.6,000.0,027.7,020.5,11.8,0000.0,0007.69,0004.15,0003.82
2023-11-30 14:33:00,SystemResetWarning,0823.7,5.00,000.00,019.4,018.6,000.0,027.7,020.5,11.8,0000.0,0007.58,0004.12,0003.81
2023-11-30 14:34:00,SystemResetWarning,0823.7,5.00,000.00,019.4,018.6,000.0,027.7,020.5,11.8,0000.0,0007.60,0004.14,0003.80
2023-11-30 14:35:00,SystemResetWarning,0823.7,4.99,000.00,019.4,018.6,000.0,027.7,020.6,11.8,0000.0,0007.55,0004.18,0003.80
2023-11-30 14:36:00,SystemResetWarning,0823.7,5.00,000.00,019.4,018.6,000.0,027.7,020.6,11.9,0000.0,0007.62,0004.19,0003.80
2023-11-30 14:37:00,SystemResetWarning,0823.8,5.00,000.00,019.4,018.6,000.0,027.7,020.6,11.9,0000.0,0007.59,0004.18,0003.81
2023-11-30 14:38:00,SystemResetWarning,0823.8,5.01,000.00,019.4,018.6,000.0,027.7,020.6,11.9,0000.0,0007.60,0004.17,0003.82
2023-11-30 14:39:00,SystemResetWarning,0823.8,5.00,000.00,019.4,018.6,000.0,027.7,020.6,12.0,0000.0,0007.53,0004.14,0003.82
2023-11-30 14:40:00,SystemResetWarning,0823.8,5.00,000.00,019.4,018.6,000.0,027.7,020.6,12.0,0000.0,0007.30,0004.15,0003.84
2023-11-30 14:41:00,SystemResetWarning,0823.8,5.00,000.00,019.4,018.6,000.0,027.7,020.6,12.1,0000.0,0007.31,0004.19,0003.85
2023-11-30 14:42:00,SystemResetWarning,0823.8,5.00,000.00,019.4,018.6,000.0,027.7,020.6,12.1,0000.0,0007.20,0004.19,0003.85
2023-11-30 14:43:00,SystemResetWarning,0823.8,5.00,000.00,019.4,018.6,000.0,027.7,020.5,12.1,0000.0,0007.06,0004.16,0003.84
2023-11-30 14:44:00,SystemResetWarning,0823.8,5.00,000.00,019.4,018.6,000.0,027.7,020.5,12.1,0000.0,0007.04,0004.17,0003.84
2023-11-30 14:45:00,SystemResetWarning,0823.8,5.00,000.00,019.4,018.6,000.0,027.7,020.6,12.1,0000.0,0006.97,0004.16,0003.85
2023-11-30 14:46:00,SystemResetWarning,0823.8,5.00,000.00,019.4,018.6,000.0,027.7,020.5,12.1,0000.0,0006.89,0004.12,0003.85
2023-11-30 14:47:00,SystemResetWarning,0823.8,5.00,000.00,019.4,018.6,000.0,027.7,020.5,12.0,0000.0,0007.52,0004.09,0003.85
2023-11-30 14:48:00,SystemResetWarning,0823.8,5.01,000.00,019.4,018.6,000.0,027.7,020.5,12.0,0000.0,0008.36,0004.09,0003.85
2023-11-30 14:49:00,SystemResetWarning,0823.7,5.00,000.00,019.4,018.6,000.0,027.7,020.5,12.0,0000.0,0008.69,0004.10,0003.85
2023-11-30 14:50:00,SystemResetWarning,0823.7,5.00,000.00,019.3,018.6,000.0,027.7,020.5,12.1,0000.0,0008.67,0004.10,0003.84
2023-11-30 14:51:00,SystemResetWarning,0823.7,5.00,000.00,019.3,018.6,000.0,027.7,020.5,12.1,0000.0,0008.81,0004.11,0003.82
2023-11-30 14:52:00,SystemResetWarning,0823.7,5.01,000.00,019.3,018.5,000.0,027.7,020.5,12.1,0000.0,0008.73,0004.09,0003.81
2023-11-30 14:53:00,SystemResetWarning,0823.7,5.01,000.00,019.3,018.5,000.0,027.7,020.4,12.1,0000.0,0008.74,0004.09,0003.80
2023-11-30 14:54:00,SystemResetWarning,0823.7,5.01,000.00,019.3,018.5,000.0,027.7,020.4,12.1,0000.0,0008.82,0004.11,0003.80
2023-11-30 14:55:00,SystemResetWarning,0823.7,5.00,000.00,019.3,018.5,000.0,027.7,020.4,12.1,0000.0,0009.39,0004.15,0003.81
2023-11-30 14:56:00,SystemResetWarning,0823.7,5.00,000.00,019.3,018.5,000.0,027.7,020.4,12.1,0000.0,0009.86,0004.16,0003.81
2023-11-30 14:57:00,SystemResetWarning,0823.7,5.00,000.00,019.3,018.5,000.0,027.7,020.4,12.1,0000.0,0010.21,0004.16,0003.82
2023-11-30 14:58:00,SystemResetWarning,0823.7,5.00,000.00,019.3,018.5,000.0,027.7,020.4,12.1,0000.0,0009.59,0004.16,0003.82
2023-11-30 14:59:00,SystemResetWarning,0823.7,5.00,000.00,019.3,018.5,000.0,027.7,020.4,12.1,0000.0,0008.77,0004.14,0003.81
